DLH4UP LMML-EDDF

Flight info

Callsign DLH4UP
Flight time 2h 19m
Altitude 36000
Route GZO M622 SOPIR DCT MABOX DCT ADEXI DCT GIANO DCT VALMA DCT GISPA DCT ABREG/N0441F340 DCT LADOL T163 EMPAX EMPAX5B
Aircraft A321/M-SDE3FGHIRWY/LB1

Departure

Time 2026-05-05 17:05
Airport Malta International Airport (LMML)

Arrival

Time 2026-05-05 19:24
Airport Frankfurt Main Airport (EDDF)
Time Latitude Longitude Altitude Speed Heading
2026-05-05 16:47 35.85406 14.48516 272 ft 0 kts
2026-05-05 16:59 35.85407 14.48516 272 ft 0 kts 357°
2026-05-05 16:59 35.85408 14.48514 272 ft 1 kts 341°
2026-05-05 16:59 35.85411 14.48504 272 ft 2 kts 285°
2026-05-05 17:00 35.85402 14.48493 272 ft 3 kts 230°
2026-05-05 17:00 35.85397 14.48465 274 ft 4 kts 282°
2026-05-05 17:00 35.85418 14.48433 272 ft 6 kts 314°
2026-05-05 17:00 35.85451 14.48392 272 ft 7 kts 315°
2026-05-05 17:01 35.85490 14.48343 272 ft 9 kts 315°
2026-05-05 17:01 35.85535 14.48287 272 ft 10 kts 315°
2026-05-05 17:01 35.85583 14.48228 272 ft 9 kts 316°
2026-05-05 17:01 35.85643 14.48206 272 ft 8 kts 349°
2026-05-05 17:02 35.85658 14.48163 272 ft 6 kts 272°
2026-05-05 17:02 35.85658 14.48105 272 ft 7 kts 270°
2026-05-05 17:02 35.85658 14.48036 272 ft 9 kts 270°
2026-05-05 17:02 35.85672 14.47970 272 ft 7 kts 271°
2026-05-05 17:03 35.85642 14.47916 272 ft 7 kts 225°
2026-05-05 17:03 35.85620 14.47908 272 ft 3 kts 154°
2026-05-05 17:03 35.85607 14.47922 272 ft 0 kts 136°
2026-05-05 17:04 35.85601 14.47930 272 ft 12 kts 135°
2026-05-05 17:04 35.85356 14.48234 272 ft 86 kts 135°
2026-05-05 17:04 35.84780 14.48949 263 ft 146 kts 134°
2026-05-05 17:04 35.84034 14.49873 875 ft 149 kts 134°
2026-05-05 17:05 35.83304 14.50778 1573 ft 149 kts 137°
2026-05-05 17:05 35.82451 14.51604 1895 ft 166 kts 149°
2026-05-05 17:05 35.81330 14.52216 2090 ft 189 kts 164°
2026-05-05 17:05 35.79956 14.52446 2299 ft 211 kts 179°
2026-05-05 17:06 35.78428 14.52114 2436 ft 238 kts 199°
2026-05-05 17:06 35.76955 14.51043 2919 ft 253 kts 220°
2026-05-05 17:06 35.75837 14.49330 3561 ft 261 kts 237°
2026-05-05 17:06 35.74906 14.47411 4301 ft 263 kts 238°
2026-05-05 17:07 35.73959 14.45462 5008 ft 266 kts 238°
2026-05-05 17:07 35.73002 14.43497 5700 ft 269 kts 238°
2026-05-05 17:07 35.72263 14.41361 6357 ft 275 kts 257°
2026-05-05 17:07 35.72180 14.39009 6994 ft 279 kts 278°
2026-05-05 17:08 35.72801 14.36748 7673 ft 282 kts 299°
2026-05-05 17:08 35.74057 14.34894 8366 ft 286 kts 320°
2026-05-05 17:08 35.75797 14.33693 9050 ft 290 kts 337°
2026-05-05 17:08 35.77694 14.32812 9743 ft 292 kts 336°
2026-05-05 17:09 35.79603 14.31925 10315 ft 298 kts 338°
2026-05-05 17:09 35.81613 14.30984 10446 ft 319 kts 338°
2026-05-05 17:09 35.83748 14.29976 10571 ft 339 kts 338°
2026-05-05 17:09 35.86011 14.28906 10679 ft 357 kts 336°
2026-05-05 17:10 35.88384 14.27784 10864 ft 372 kts 338°
2026-05-05 17:10 35.90815 14.26635 11331 ft 376 kts 337°
2026-05-05 17:10 35.93274 14.25475 11846 ft 380 kts 337°
2026-05-05 17:10 35.95745 14.24310 12395 ft 382 kts 337°
2026-05-05 17:11 35.98237 14.23133 12935 ft 384 kts 337°
2026-05-05 17:11 36.00741 14.21949 13478 ft 387 kts 337°
2026-05-05 17:11 36.03240 14.20684 13964 ft 389 kts 332°
2026-05-05 17:11 36.05582 14.18916 14430 ft 390 kts 322°
2026-05-05 17:12 36.07791 14.16949 14914 ft 393 kts 322°
2026-05-05 17:12 36.10017 14.14974 15397 ft 395 kts 322°
2026-05-05 17:12 36.12257 14.12988 15875 ft 397 kts 322°
2026-05-05 17:12 36.14501 14.10997 16338 ft 399 kts 322°
2026-05-05 17:13 36.16765 14.08992 16815 ft 401 kts 322°
2026-05-05 17:13 36.19037 14.06982 17266 ft 403 kts 322°
2026-05-05 17:13 36.21323 14.04956 17703 ft 405 kts 322°
2026-05-05 17:13 36.23616 14.02921 18145 ft 407 kts 322°
2026-05-05 17:14 36.25923 14.00872 18545 ft 409 kts 322°
2026-05-05 17:14 36.28243 13.98808 18915 ft 411 kts 322°
2026-05-05 17:14 36.30570 13.96734 19284 ft 413 kts 322°
2026-05-05 17:14 36.32908 13.94644 19657 ft 415 kts 322°
2026-05-05 17:15 36.35256 13.92546 20027 ft 417 kts 322°
2026-05-05 17:15 36.37619 13.90437 20401 ft 419 kts 322°
2026-05-05 17:15 36.39996 13.88316 20772 ft 422 kts 322°
2026-05-05 17:15 36.42379 13.86188 21144 ft 424 kts 322°
2026-05-05 17:16 36.44780 13.84045 21515 ft 426 kts 322°
2026-05-05 17:16 36.47186 13.81894 21866 ft 428 kts 322°
2026-05-05 17:16 36.49607 13.79724 22215 ft 430 kts 322°
2026-05-05 17:16 36.52038 13.77545 22551 ft 432 kts 322°
2026-05-05 17:17 36.54480 13.75352 22886 ft 434 kts 322°
2026-05-05 17:17 36.56936 13.73147 23225 ft 436 kts 322°
2026-05-05 17:17 36.59400 13.70933 23554 ft 438 kts 322°
2026-05-05 17:17 36.61879 13.68702 23847 ft 440 kts 322°
2026-05-05 17:18 36.63558 13.67190 24032 ft 442 kts 322°
2026-05-05 17:18 36.66051 13.64943 24331 ft 443 kts 322°
2026-05-05 17:18 36.68551 13.62688 24621 ft 445 kts 322°
2026-05-05 17:18 36.71062 13.60424 24927 ft 446 kts 322°
2026-05-05 17:19 36.73577 13.58157 25223 ft 447 kts 322°
2026-05-05 17:19 36.76100 13.55883 25504 ft 448 kts 322°
2026-05-05 17:19 36.78634 13.53596 25768 ft 450 kts 322°
2026-05-05 17:19 36.81170 13.51303 26023 ft 451 kts 322°
2026-05-05 17:20 36.83718 13.48997 26270 ft 453 kts 321°
2026-05-05 17:20 36.86272 13.46682 26488 ft 455 kts 321°
2026-05-05 17:20 36.88837 13.44350 26690 ft 457 kts 321°
2026-05-05 17:20 36.91408 13.42009 26900 ft 458 kts 321°
2026-05-05 17:21 36.93985 13.39663 27099 ft 459 kts 321°
2026-05-05 17:21 36.96571 13.37309 27309 ft 460 kts 321°
2026-05-05 17:21 36.99154 13.34955 27587 ft 459 kts 321°
2026-05-05 17:22 37.04310 13.30262 28156 ft 457 kts 321°
2026-05-05 17:22 37.06880 13.27924 28440 ft 456 kts 321°
2026-05-05 17:22 37.09444 13.25586 28720 ft 456 kts 321°
2026-05-05 17:22 37.12000 13.23247 29000 ft 455 kts 321°
2026-05-05 17:23 37.14551 13.20905 29279 ft 454 kts 321°
2026-05-05 17:23 37.17098 13.18566 29554 ft 454 kts 321°
2026-05-05 17:23 37.19643 13.16230 29834 ft 453 kts 321°
2026-05-05 17:23 37.22183 13.13900 30129 ft 452 kts 321°
2026-05-05 17:24 37.24751 13.11546 30402 ft 450 kts 320°
2026-05-05 17:24 37.27279 13.09227 30641 ft 450 kts 320°
2026-05-05 17:24 37.29800 13.06912 30884 ft 449 kts 320°
2026-05-05 17:24 37.32326 13.04612 31100 ft 449 kts 323°
2026-05-05 17:25 37.35044 13.02656 31335 ft 452 kts 332°
2026-05-05 17:25 37.36976 13.01657 31479 ft 455 kts 338°
2026-05-05 17:25 37.41039 13.00119 31772 ft 456 kts 340°
2026-05-05 17:25 37.44075 12.98995 32002 ft 455 kts 340°
2026-05-05 17:26 37.47112 12.97867 32236 ft 454 kts 340°
2026-05-05 17:26 37.50139 12.96740 32493 ft 453 kts 340°
2026-05-05 17:26 37.53158 12.95615 32740 ft 452 kts 340°
2026-05-05 17:26 37.56174 12.94491 32957 ft 452 kts 340°
2026-05-05 17:27 37.59186 12.93368 33182 ft 451 kts 340°
2026-05-05 17:27 37.62196 12.92245 33419 ft 451 kts 340°
2026-05-05 17:27 37.65196 12.91121 33628 ft 450 kts 340°
2026-05-05 17:27 37.68197 12.89994 33858 ft 449 kts 340°
2026-05-05 17:28 37.71195 12.88866 34056 ft 449 kts 340°
2026-05-05 17:28 37.74185 12.87742 34248 ft 449 kts 340°
2026-05-05 17:28 37.77175 12.86616 34437 ft 448 kts 339°
2026-05-05 17:28 37.80159 12.85491 34634 ft 447 kts 340°
2026-05-05 17:29 37.83143 12.84369 34827 ft 447 kts 340°
2026-05-05 17:29 37.86123 12.83251 34999 ft 446 kts 340°
2026-05-05 17:29 37.89096 12.82134 35189 ft 446 kts 339°
2026-05-05 17:29 37.92069 12.81014 35365 ft 445 kts 339°
2026-05-05 17:30 37.95035 12.79897 35566 ft 445 kts 339°
2026-05-05 17:30 37.98001 12.78782 35744 ft 444 kts 339°
2026-05-05 17:30 38.01002 12.77654 35941 ft 443 kts 339°
2026-05-05 17:30 38.03957 12.76537 36042 ft 444 kts 339°
2026-05-05 17:31 38.06922 12.75411 36041 ft 445 kts 339°
2026-05-05 17:31 38.12849 12.73160 36042 ft 445 kts 339°
2026-05-05 17:32 38.18777 12.70905 36041 ft 445 kts 339°
2026-05-05 17:32 38.24700 12.68659 36041 ft 443 kts 339°
2026-05-05 17:33 38.30601 12.66416 36043 ft 443 kts 339°
2026-05-05 17:33 38.36509 12.64157 36047 ft 443 kts 339°
2026-05-05 17:34 38.42416 12.61898 36054 ft 444 kts 339°
2026-05-05 17:34 38.48332 12.59634 36068 ft 444 kts 339°
2026-05-05 17:35 38.54246 12.57376 36065 ft 443 kts 339°
2026-05-05 17:35 38.60153 12.55107 36062 ft 443 kts 339°
2026-05-05 17:36 38.66053 12.52831 36060 ft 443 kts 339°
2026-05-05 17:36 38.71954 12.50550 36073 ft 443 kts 339°
2026-05-05 17:37 38.77850 12.48278 36068 ft 442 kts 339°
2026-05-05 17:37 38.83741 12.45996 36059 ft 442 kts 338°
2026-05-05 17:38 38.89632 12.43719 36064 ft 442 kts 339°
2026-05-05 17:38 38.95557 12.41558 36071 ft 443 kts 340°
2026-05-05 17:39 39.01533 12.39421 36076 ft 443 kts 339°
2026-05-05 17:39 39.07465 12.37274 36059 ft 443 kts 339°
2026-05-05 17:40 39.13396 12.35098 36069 ft 444 kts 339°
2026-05-05 17:40 39.19332 12.32907 36069 ft 444 kts 339°
2026-05-05 17:41 39.25273 12.30727 36073 ft 444 kts 339°
2026-05-05 17:41 39.31215 12.28541 36071 ft 444 kts 339°
2026-05-05 17:42 39.37160 12.26361 36069 ft 444 kts 339°
2026-05-05 17:42 39.43108 12.24166 36083 ft 444 kts 339°
2026-05-05 17:43 39.49044 12.21955 36080 ft 444 kts 339°
2026-05-05 17:43 39.54975 12.19748 36078 ft 443 kts 339°
2026-05-05 17:44 39.60907 12.17547 36077 ft 443 kts 339°
2026-05-05 17:44 39.66840 12.15354 36084 ft 443 kts 339°
2026-05-05 17:45 39.72766 12.13145 36076 ft 443 kts 339°
2026-05-05 17:45 39.78697 12.10927 36076 ft 443 kts 339°
2026-05-05 17:46 39.84622 12.08708 36094 ft 443 kts 338°
2026-05-05 17:46 39.90587 12.06473 36082 ft 443 kts 339°
2026-05-05 17:47 39.96511 12.04251 36084 ft 443 kts 339°
2026-05-05 17:47 40.02431 12.02027 36080 ft 443 kts 338°
2026-05-05 17:48 40.08366 11.99794 36082 ft 444 kts 338°
2026-05-05 17:48 40.14298 11.97559 36075 ft 444 kts 338°
2026-05-05 17:49 40.20236 11.95314 36070 ft 444 kts 338°
2026-05-05 17:49 40.26173 11.93063 36072 ft 444 kts 338°
2026-05-05 17:50 40.32111 11.90803 36091 ft 444 kts 338°
2026-05-05 17:50 40.38051 11.88542 36080 ft 444 kts 338°
2026-05-05 17:51 40.42983 11.86668 36068 ft 444 kts 338°
2026-05-05 17:51 40.48960 11.84391 36078 ft 444 kts 338°
2026-05-05 17:52 40.54891 11.82124 36082 ft 444 kts 338°
2026-05-05 17:52 40.60822 11.79857 36076 ft 444 kts 338°
2026-05-05 17:53 40.66749 11.77583 36074 ft 444 kts 338°
2026-05-05 17:53 40.72673 11.75298 36073 ft 444 kts 338°
2026-05-05 17:54 40.78601 11.73008 36076 ft 444 kts 337°
2026-05-05 17:54 40.84531 11.70724 36068 ft 444 kts 337°
2026-05-05 17:55 40.90460 11.68434 36067 ft 444 kts 337°
2026-05-05 17:55 40.96387 11.66144 36075 ft 444 kts 337°
2026-05-05 17:56 41.02296 11.63859 36055 ft 441 kts 336°
2026-05-05 17:56 41.08187 11.61563 36055 ft 441 kts 336°
2026-05-05 17:57 41.14081 11.59258 36051 ft 442 kts 336°
2026-05-05 17:57 41.19984 11.56956 36072 ft 442 kts 336°
2026-05-05 17:58 41.25899 11.54660 36061 ft 443 kts 336°
2026-05-05 17:58 41.31812 11.52346 36054 ft 443 kts 336°
2026-05-05 17:59 41.37766 11.50006 36053 ft 443 kts 336°
2026-05-05 17:59 41.43686 11.47675 36067 ft 444 kts 336°
2026-05-05 18:00 41.49615 11.45337 36051 ft 445 kts 336°
2026-05-05 18:00 41.55555 11.42995 36048 ft 445 kts 336°
2026-05-05 18:01 41.61521 11.40716 36049 ft 447 kts 337°
2026-05-05 18:01 41.67560 11.38655 36058 ft 448 kts 338°
2026-05-05 18:02 41.73613 11.36632 36048 ft 448 kts 338°
2026-05-05 18:02 41.79651 11.34556 36049 ft 448 kts 338°
2026-05-05 18:03 41.85670 11.32396 36068 ft 447 kts 336°
2026-05-05 18:03 41.91667 11.30150 36055 ft 447 kts 336°
2026-05-05 18:04 41.97671 11.27893 36039 ft 449 kts 336°
2026-05-05 18:04 42.03699 11.25663 36034 ft 450 kts 336°
2026-05-05 18:05 42.09741 11.23429 36050 ft 450 kts 336°
2026-05-05 18:05 42.15824 11.21167 36036 ft 451 kts 336°
2026-05-05 18:06 42.21874 11.18912 36037 ft 451 kts 336°
2026-05-05 18:06 42.27923 11.16652 36035 ft 451 kts 336°
2026-05-05 18:07 42.33976 11.14388 36043 ft 451 kts 336°
2026-05-05 18:07 42.40030 11.12121 36039 ft 452 kts 336°
2026-05-05 18:08 42.46082 11.09851 36032 ft 452 kts 336°
2026-05-05 18:08 42.52138 11.07576 36058 ft 452 kts 336°
2026-05-05 18:09 42.58193 11.05290 36035 ft 452 kts 336°
2026-05-05 18:09 42.64248 11.02995 36030 ft 452 kts 336°
2026-05-05 18:10 42.70299 11.00699 36062 ft 452 kts 336°
2026-05-05 18:10 42.76346 10.98410 36021 ft 451 kts 336°
2026-05-05 18:11 42.82392 10.96119 36022 ft 451 kts 336°
2026-05-05 18:11 42.88444 10.93816 36024 ft 452 kts 336°
2026-05-05 18:12 42.94503 10.91492 36059 ft 452 kts 336°
2026-05-05 18:12 43.00597 10.89162 36051 ft 452 kts 336°
2026-05-05 18:13 43.06648 10.86849 36044 ft 452 kts 336°
2026-05-05 18:13 43.12697 10.84520 36056 ft 451 kts 336°
2026-05-05 18:14 43.18741 10.82192 36045 ft 452 kts 336°
2026-05-05 18:14 43.24791 10.79868 36036 ft 451 kts 336°
2026-05-05 18:15 43.30840 10.77541 36035 ft 451 kts 336°
2026-05-05 18:15 43.36879 10.75192 36045 ft 451 kts 336°
2026-05-05 18:16 43.42921 10.72833 36030 ft 451 kts 336°
2026-05-05 18:16 43.48970 10.70483 36029 ft 452 kts 336°
2026-05-05 18:17 43.55022 10.68135 36036 ft 452 kts 336°
2026-05-05 18:17 43.61083 10.65774 36013 ft 452 kts 336°
2026-05-05 18:18 43.67181 10.63383 36010 ft 452 kts 336°
2026-05-05 18:18 43.73236 10.61001 36030 ft 453 kts 336°
2026-05-05 18:19 43.79299 10.58624 36017 ft 453 kts 336°
2026-05-05 18:19 43.85377 10.56241 36022 ft 455 kts 336°
2026-05-05 18:20 43.91475 10.53834 36034 ft 456 kts 336°
2026-05-05 18:20 43.97584 10.51415 36061 ft 457 kts 336°
2026-05-05 18:21 44.03704 10.48988 36075 ft 458 kts 336°
2026-05-05 18:21 44.09839 10.46548 36088 ft 459 kts 336°
2026-05-05 18:22 44.15973 10.44103 36091 ft 459 kts 336°
2026-05-05 18:22 44.22113 10.41653 36067 ft 459 kts 336°
2026-05-05 18:23 44.28260 10.39200 36068 ft 460 kts 336°
2026-05-05 18:23 44.33422 10.37142 36069 ft 460 kts 336°
2026-05-05 18:24 44.39575 10.34670 36065 ft 460 kts 336°
2026-05-05 18:24 44.45734 10.32186 36065 ft 461 kts 336°
2026-05-05 18:25 44.51899 10.29707 36052 ft 461 kts 336°
2026-05-05 18:25 44.58068 10.27220 36038 ft 461 kts 336°
2026-05-05 18:26 44.64238 10.24720 36020 ft 461 kts 336°
2026-05-05 18:26 44.70408 10.22211 36005 ft 462 kts 336°
2026-05-05 18:27 44.76591 10.19699 36015 ft 463 kts 336°
2026-05-05 18:27 44.82781 10.17182 36009 ft 463 kts 336°
2026-05-05 18:28 44.92121 10.13353 36004 ft 464 kts 336°
2026-05-05 18:28 44.98325 10.10814 36003 ft 465 kts 336°
2026-05-05 18:29 45.04540 10.08265 36005 ft 465 kts 336°
2026-05-05 18:29 45.10750 10.05709 36004 ft 465 kts 336°
2026-05-05 18:30 45.16965 10.03144 36007 ft 466 kts 336°
2026-05-05 18:30 45.23187 10.00570 35979 ft 466 kts 336°
2026-05-05 18:31 45.29414 9.97982 35984 ft 467 kts 336°
2026-05-05 18:31 45.35655 9.95387 36002 ft 468 kts 336°
2026-05-05 18:32 45.41907 9.92789 35997 ft 468 kts 336°
2026-05-05 18:32 45.48164 9.90176 36010 ft 469 kts 336°
2026-05-05 18:33 45.54424 9.87553 36023 ft 469 kts 336°
2026-05-05 18:33 45.60685 9.84929 36033 ft 469 kts 336°
2026-05-05 18:34 45.66990 9.82276 36063 ft 469 kts 336°
2026-05-05 18:34 45.73255 9.79634 35992 ft 469 kts 336°
2026-05-05 18:35 45.79525 9.76986 35992 ft 470 kts 337°
2026-05-05 18:35 45.85808 9.74324 36005 ft 472 kts 337°
2026-05-05 18:36 45.92112 9.71655 36016 ft 472 kts 337°
2026-05-05 18:36 45.98415 9.68975 36018 ft 472 kts 337°
2026-05-05 18:37 46.04716 9.66286 36010 ft 473 kts 337°
2026-05-05 18:37 46.11026 9.63592 36007 ft 473 kts 337°
2026-05-05 18:38 46.17337 9.60895 36019 ft 473 kts 337°
2026-05-05 18:38 46.23654 9.58180 36010 ft 473 kts 337°
2026-05-05 18:39 46.29970 9.55459 35997 ft 475 kts 337°
2026-05-05 18:39 46.36396 9.53081 35986 ft 479 kts 342°
2026-05-05 18:40 46.42947 9.51188 35980 ft 481 kts 343°
2026-05-05 18:40 46.49539 9.49318 35983 ft 480 kts 342°
2026-05-05 18:41 46.56063 9.47304 35985 ft 479 kts 342°
2026-05-05 18:41 46.62575 9.45223 35976 ft 480 kts 342°
2026-05-05 18:42 46.69109 9.43143 35955 ft 481 kts 341°
2026-05-05 18:42 46.75642 9.41071 35932 ft 481 kts 341°
2026-05-05 18:43 46.82202 9.39002 35922 ft 480 kts 342°
2026-05-05 18:43 46.88687 9.36960 35896 ft 478 kts 342°
2026-05-05 18:44 46.95193 9.34896 35890 ft 479 kts 342°
2026-05-05 18:44 47.01702 9.32815 35899 ft 479 kts 342°
2026-05-05 18:45 47.08227 9.30721 35903 ft 480 kts 342°
2026-05-05 18:45 47.14790 9.28628 35907 ft 480 kts 342°
2026-05-05 18:46 47.21319 9.26537 35910 ft 480 kts 342°
2026-05-05 18:46 47.27844 9.24432 35916 ft 480 kts 343°
2026-05-05 18:47 47.34412 9.22320 35913 ft 480 kts 343°
2026-05-05 18:47 47.40937 9.20215 35912 ft 480 kts 343°
2026-05-05 18:48 47.47456 9.18101 35897 ft 478 kts 344°
2026-05-05 18:48 47.53948 9.15990 35896 ft 478 kts 344°
2026-05-05 18:49 47.60493 9.13927 35895 ft 480 kts 350°
2026-05-05 18:49 47.67204 9.13496 35903 ft 483 kts 355°
2026-05-05 18:50 47.73932 9.13216 35900 ft 483 kts 356°
2026-05-05 18:50 47.80659 9.12956 35899 ft 484 kts 356°
2026-05-05 18:51 47.87382 9.12683 35904 ft 484 kts 356°
2026-05-05 18:51 47.94117 9.12388 35902 ft 484 kts 356°
2026-05-05 18:52 48.00847 9.12109 35900 ft 484 kts 356°
2026-05-05 18:52 48.07574 9.11844 35892 ft 483 kts 356°
2026-05-05 18:53 48.14309 9.11565 35893 ft 483 kts 356°
2026-05-05 18:53 48.21030 9.11271 35887 ft 483 kts 356°
2026-05-05 18:54 48.26659 9.11035 35884 ft 483 kts 356°
2026-05-05 18:54 48.33374 9.10759 35883 ft 482 kts 357°
2026-05-05 18:55 48.40080 9.10486 35878 ft 482 kts 357°
2026-05-05 18:55 48.46790 9.10204 35863 ft 481 kts 357°
2026-05-05 18:56 48.50131 9.10061 35317 ft 480 kts 357°
2026-05-05 18:56 48.53459 9.09918 34696 ft 478 kts 357°
2026-05-05 18:56 48.56773 9.09775 34092 ft 476 kts 357°
2026-05-05 18:56 48.60267 9.09626 33267 ft 477 kts 358°
2026-05-05 18:57 48.63403 9.09493 32499 ft 477 kts 358°
2026-05-05 18:57 48.66766 9.09351 31704 ft 477 kts 358°
2026-05-05 18:57 48.70081 9.09211 30943 ft 476 kts 358°
2026-05-05 18:57 48.73392 9.09071 30197 ft 476 kts 358°
2026-05-05 18:58 48.76696 9.08932 29390 ft 474 kts 358°
2026-05-05 18:58 48.79989 9.08793 28549 ft 473 kts 358°
2026-05-05 18:58 48.83269 9.08652 27760 ft 470 kts 358°
2026-05-05 18:58 48.86534 9.08509 27007 ft 468 kts 358°
2026-05-05 18:59 48.89790 9.08645 26252 ft 465 kts
2026-05-05 18:59 48.92982 9.09104 25528 ft 462 kts
2026-05-05 18:59 48.96171 9.09561 24813 ft 459 kts
2026-05-05 18:59 48.99339 9.10011 24119 ft 455 kts
2026-05-05 19:00 49.02480 9.10459 23440 ft 452 kts
2026-05-05 19:00 49.05590 9.10906 22651 ft 448 kts
2026-05-05 19:00 49.08683 9.11350 21869 ft 444 kts
2026-05-05 19:00 49.11732 9.11787 21383 ft 434 kts
2026-05-05 19:01 49.14705 9.12211 21125 ft 430 kts
2026-05-05 19:01 49.17693 9.12632 20888 ft 432 kts
2026-05-05 19:01 49.20726 9.13061 20826 ft 432 kts
2026-05-05 19:01 49.23728 9.13489 20844 ft 433 kts
2026-05-05 19:02 49.26727 9.13916 20847 ft 433 kts
2026-05-05 19:02 49.29701 9.14608 20844 ft 429 kts 12°
2026-05-05 19:02 49.32544 9.15624 20844 ft 409 kts 13°
2026-05-05 19:02 49.35262 9.16600 20847 ft 398 kts 13°
2026-05-05 19:03 49.37949 9.17559 20833 ft 395 kts 12°
2026-05-05 19:03 49.40587 9.18495 20630 ft 384 kts 13°
2026-05-05 19:03 49.43170 9.19407 20195 ft 378 kts 13°
2026-05-05 19:03 49.45725 9.20312 19707 ft 375 kts 13°
2026-05-05 19:04 49.48282 9.21222 19004 ft 370 kts 12°
2026-05-05 19:04 49.50779 9.22114 18284 ft 367 kts 12°
2026-05-05 19:04 49.53255 9.22996 17493 ft 363 kts 12°
2026-05-05 19:04 49.55706 9.23866 16723 ft 359 kts 12°
2026-05-05 19:05 49.58127 9.24729 15976 ft 355 kts 12°
2026-05-05 19:05 49.60515 9.25586 15268 ft 351 kts 11°
2026-05-05 19:05 49.62880 9.26438 14575 ft 347 kts 11°
2026-05-05 19:05 49.65212 9.27278 13874 ft 343 kts 11°
2026-05-05 19:06 49.67520 9.28116 13141 ft 339 kts 11°
2026-05-05 19:06 49.69799 9.28945 12394 ft 335 kts 11°
2026-05-05 19:06 49.72058 9.29766 11670 ft 332 kts 11°
2026-05-05 19:06 49.74309 9.30579 11200 ft 330 kts 11°
2026-05-05 19:07 49.76539 9.31386 10958 ft 320 kts 11°
2026-05-05 19:07 49.78660 9.32151 10819 ft 304 kts 11°
2026-05-05 19:07 49.80636 9.32878 10830 ft 281 kts 11°
2026-05-05 19:07 49.82508 9.33576 10842 ft 275 kts 11°
2026-05-05 19:08 49.84361 9.34274 10844 ft 274 kts 11°
2026-05-05 19:08 49.86210 9.34976 10842 ft 273 kts 11°
2026-05-05 19:08 49.88062 9.35607 10837 ft 272 kts
2026-05-05 19:08 49.89928 9.35823 10837 ft 267 kts 348°
2026-05-05 19:09 49.91657 9.34939 10835 ft 259 kts 324°
2026-05-05 19:09 49.92977 9.33117 10835 ft 252 kts 302°
2026-05-05 19:09 49.93730 9.30708 10835 ft 247 kts 280°
2026-05-05 19:09 49.93899 9.28077 10837 ft 245 kts 269°
2026-05-05 19:10 49.93947 9.25433 10806 ft 245 kts 269°
2026-05-05 19:10 49.93995 9.22798 10533 ft 243 kts 269°
2026-05-05 19:10 49.94041 9.20184 10218 ft 243 kts 269°
2026-05-05 19:10 49.94087 9.17531 9929 ft 242 kts 269°
2026-05-05 19:11 49.94132 9.14930 9637 ft 241 kts 269°
2026-05-05 19:11 49.94176 9.12340 9330 ft 240 kts 269°
2026-05-05 19:11 49.94221 9.09759 9007 ft 238 kts 269°
2026-05-05 19:11 49.94263 9.07194 8691 ft 237 kts 269°
2026-05-05 19:12 49.94306 9.04644 8368 ft 236 kts 269°
2026-05-05 19:12 49.94349 9.02103 8050 ft 235 kts 269°
2026-05-05 19:12 49.94389 8.99580 7841 ft 233 kts 269°
2026-05-05 19:12 49.94598 8.97073 7737 ft 237 kts 289°
2026-05-05 19:13 49.95569 8.94993 7583 ft 245 kts 320°
2026-05-05 19:13 49.97125 8.93943 7328 ft 250 kts 351°
2026-05-05 19:13 49.98851 8.94272 7083 ft 254 kts 22°
2026-05-05 19:13 50.00265 8.95944 6878 ft 255 kts 54°
2026-05-05 19:14 50.01186 8.98323 6822 ft 257 kts 63°
2026-05-05 19:14 50.02004 9.00803 6825 ft 258 kts 64°
2026-05-05 19:14 50.02808 9.03300 6827 ft 258 kts 64°
2026-05-05 19:14 50.03609 9.05804 6829 ft 258 kts 64°
2026-05-05 19:15 50.04407 9.08298 6755 ft 257 kts 64°
2026-05-05 19:15 50.05201 9.10784 6448 ft 255 kts 64°
2026-05-05 19:15 50.05995 9.13248 6143 ft 254 kts 61°
2026-05-05 19:15 50.07142 9.15277 5800 ft 251 kts 31°
2026-05-05 19:16 50.08758 9.16119 5460 ft 244 kts 359°
2026-05-05 19:16 50.10370 9.15564 5093 ft 236 kts 326°
2026-05-05 19:16 50.11522 9.13805 4775 ft 227 kts 298°
2026-05-05 19:16 50.12299 9.11645 4523 ft 229 kts 295°
2026-05-05 19:17 50.12978 9.09409 4264 ft 227 kts 284°
2026-05-05 19:17 50.13263 9.07003 4074 ft 225 kts 275°
2026-05-05 19:17 50.13441 9.04548 4014 ft 225 kts 274°
2026-05-05 19:17 50.13600 9.02121 4015 ft 226 kts 274°
2026-05-05 19:18 50.13647 8.99685 4017 ft 224 kts 257°
2026-05-05 19:18 50.13162 8.97386 4018 ft 224 kts 249°
2026-05-05 19:18 50.12616 8.95109 4025 ft 223 kts 249°
2026-05-05 19:18 50.12080 8.92837 4020 ft 224 kts 249°
2026-05-05 19:19 50.11546 8.90563 4014 ft 224 kts 249°
2026-05-05 19:19 50.11014 8.88297 4009 ft 216 kts 249°
2026-05-05 19:19 50.10524 8.86209 3971 ft 194 kts 249°
2026-05-05 19:19 50.10222 8.84924 3854 ft 182 kts 249°
2026-05-05 19:20 50.09800 8.83131 3648 ft 172 kts 249°
2026-05-05 19:20 50.09388 8.81385 3429 ft 171 kts 250°
2026-05-05 19:20 50.08981 8.79659 3207 ft 169 kts 250°
2026-05-05 19:20 50.08576 8.77941 2975 ft 169 kts 249°
2026-05-05 19:21 50.08170 8.76223 2760 ft 168 kts 249°
2026-05-05 19:21 50.07766 8.74514 2518 ft 168 kts 250°
2026-05-05 19:21 50.07362 8.72804 2295 ft 167 kts 250°
2026-05-05 19:21 50.06964 8.71126 2083 ft 167 kts 249°
2026-05-05 19:22 50.06545 8.69355 1848 ft 171 kts 249°
2026-05-05 19:22 50.06159 8.67726 1614 ft 151 kts 249°
2026-05-05 19:22 50.05787 8.66159 1391 ft 139 kts 249°
2026-05-05 19:22 50.05472 8.64837 1186 ft 138 kts 249°
2026-05-05 19:23 50.05141 8.63435 1018 ft 138 kts 249°
2026-05-05 19:23 50.04810 8.62040 844 ft 140 kts 249°
2026-05-05 19:23 50.04460 8.60565 670 ft 140 kts 248°
2026-05-05 19:23 50.04123 8.59151 466 ft 140 kts 248°
2026-05-05 19:24 50.03790 8.57755 351 ft 123 kts 250°
2026-05-05 19:24 50.03584 8.56892 351 ft 64 kts 249°
2026-05-05 19:24 50.03452 8.56330 348 ft 42 kts 251°
2026-05-05 19:24 50.03442 8.56011 348 ft 24 kts 281°
2026-05-05 19:25 50.03466 8.55796 351 ft 15 kts 279°
2026-05-05 19:25 50.03474 8.55733 348 ft 0 kts 281°
2026-05-05 19:25 50.03475 8.55720 347 ft 2 kts 280°
2026-05-05 19:25 50.03483 8.55648 346 ft 11 kts 279°
2026-05-05 19:26 50.03491 8.55485 359 ft 20 kts 263°
2026-05-05 19:26 50.03439 8.55253 351 ft 21 kts 250°
2026-05-05 19:26 50.03385 8.55029 353 ft 23 kts 249°
2026-05-05 19:26 50.03334 8.54813 346 ft 21 kts 251°
2026-05-05 19:27 50.03289 8.54621 355 ft 16 kts 250°
2026-05-05 19:27 50.03300 8.54490 348 ft 12 kts 326°
2026-05-05 19:27 50.03380 8.54441 352 ft 9 kts 340°
2026-05-05 19:27 50.03384 8.54439 351 ft 0 kts 340°
2026-05-05 19:33 50.03401 8.54429 346 ft 7 kts 340°
2026-05-05 19:33 50.03477 8.54388 349 ft 14 kts 340°
2026-05-05 19:33 50.03575 8.54331 349 ft 14 kts 339°
2026-05-05 19:33 50.03637 8.54310 353 ft 7 kts 11°
2026-05-05 19:34 50.03645 8.54317 353 ft 0 kts 27°
2026-05-05 19:38 50.03646 8.54318 353 ft 1 kts 27°
2026-05-05 19:38 50.03676 8.54370 346 ft 12 kts 72°
2026-05-05 19:38 50.03710 8.54536 352 ft 18 kts 71°
2026-05-05 19:38 50.03755 8.54722 352 ft 19 kts 69°
2026-05-05 19:39 50.03804 8.54926 352 ft 21 kts 70°
2026-05-05 19:39 50.03856 8.55143 355 ft 22 kts 70°
2026-05-05 19:39 50.03911 8.55376 355 ft 23 kts 70°
2026-05-05 19:39 50.03969 8.55618 354 ft 24 kts 69°
2026-05-05 19:40 50.04030 8.55869 354 ft 25 kts 69°
2026-05-05 19:40 50.04091 8.56130 351 ft 26 kts 70°
2026-05-05 19:40 50.04151 8.56379 350 ft 24 kts 69°
2026-05-05 19:40 50.04212 8.56632 356 ft 25 kts 69°
2026-05-05 19:41 50.04275 8.56894 355 ft 26 kts 69°
2026-05-05 19:41 50.04336 8.57152 349 ft 25 kts 69°
2026-05-05 19:41 50.04397 8.57409 348 ft 26 kts 69°
2026-05-05 19:41 50.04459 8.57669 352 ft 26 kts 69°
2026-05-05 19:42 50.04522 8.57932 350 ft 26 kts 69°
2026-05-05 19:42 50.04565 8.58112 349 ft 27 kts 69°
2026-05-05 19:42 50.04628 8.58377 347 ft 25 kts 69°
2026-05-05 19:42 50.04690 8.58634 350 ft 26 kts 70°
2026-05-05 19:43 50.04750 8.58861 352 ft 21 kts 69°
2026-05-05 19:43 50.04791 8.59035 350 ft 14 kts 70°
2026-05-05 19:43 50.04825 8.59183 352 ft 12 kts 69°
2026-05-05 19:43 50.04841 8.59252 347 ft 0 kts 70°
2026-05-05 19:44 50.04842 8.59253 347 ft 1 kts 70°
2026-05-05 19:44 50.04850 8.59286 351 ft 5 kts 66°
2026-05-05 19:44 50.04887 8.59283 348 ft 8 kts 337°
2026-05-05 19:44 50.04919 8.59262 353 ft 1 kts 337°
2026-05-05 19:45 50.04928 8.59257 349 ft 2 kts 339°
2026-05-05 19:45 50.04930 8.59255 349 ft 0 kts 339°